Location: Albuquerque Trailhead
(34.7934°N, 106.3736°W)
Time: 00:33:29
(UTC+00:00)

Cosmos 1953 - Pass Details

Date: 20 June 2021
Orbit: 537 x 557 km, 82.5° (Epoch: 01 August)

Event Time Altitude Azimuth Distance (km) Brightness Sun altitude
Rises 04:52:49 0° 340° (NNW) 2,745 7.2 -23.6°
Reaches altitude 10° 04:55:12 10° 329° (NNW) 1,845 6.1 -23.9°
Maximum altitude 04:58:42 28° 270° (W) 1,051 4.0 -24.3°
Enters shadow 04:59:35 26° 246° (WSW) 1,117 3.9 -24.4°
